DK8PN Weather Reports


time (UTC)temp
C
wind
direction
speed
KPH
gust
KPH
rain 1hr
cm
rain 24hr
cm
rain mn
cm
humidity
%
barometer
mb
20260903113008 24 302 3.2 14.5 0.00 0.00 0.00 50 1019.2
20260903111502 23 244 1.6 14.5 0.00 0.00 0.00 52 1019.4
20260903110000 23 257 6.4 19.3 0.00 0.00 0.00 53 1019.7
20260903104604 23 274 6.4 20.9 0.00 0.00 0.00 53 1019.7
20260903103100 22 293 6.4 14.5 0.00 0.00 0.00 53 1019.8
20260903101559 22 281 1.6 16.1 0.00 0.00 0.00 53 1020.1
20260903100059 23 275 3.2 12.9 0.00 0.00 0.00 51 1020.1
20260903094600 23 267 3.2 19.3 0.00 0.00 0.00 52 1020.3
20260903093058 23 264 1.6 11.3 0.00 0.00 0.00 52 1020.2
20260903091554 22 268 4.8 17.7 0.00 0.00 0.00 52 1020.3
20260903090052 22 273 1.6 12.9 0.00 0.00 0.00 54 1020.5
20260903084550 21 228 0.0 8.0 0.00 0.00 0.00 55 1020.3
20260903083049 22 281 0.0 0.0 0.00 0.00 0.00 58 1020.2
20260903081546 21 308 0.0 0.0 0.00 0.00 0.00 65 1020.2
20260903080044 19 288 0.0 0.0 0.00 0.00 0.00 70 1020.4
20260903074540 18 288 0.0 0.0 0.00 0.00 0.00 74 1020.4
20260903073047 17 288 0.0 0.0 0.00 0.00 0.00 74 1020.4
20260903071537 17 288 0.0 0.0 0.00 0.00 0.00 77 1020.5
20260903070036 17 288 0.0 0.0 0.00 0.00 0.00 79 1020.5
20260903064531 15 288 0.0 0.0 0.00 0.00 0.00 84 1020.4
20260903063028 14 288 0.0 0.0 0.00 0.00 0.00 86 1020.3
20260903061536 13 288 0.0 0.0 0.00 0.00 0.00 89 1020.5
20260903060021 12 288 0.0 0.0 0.00 0.00 0.00 90 1020.3
20260903054520 11 288 0.0 0.0 0.00 0.00 0.00 91 1020.7
20260903053016 11 288 0.0 0.0 0.00 0.00 0.00 91 1020.6
20260903051511 11 288 0.0 0.0 0.00 0.00 0.00 91 1020.3
20260903050008 10 288 0.0 0.0 0.00 0.00 0.00 91 1020.0
20260903044506 10 288 0.0 0.0 0.00 0.00 0.00 91 1020.0
20260903043004 11 288 0.0 0.0 0.00 0.00 0.00 91 1019.8
20260903041504 11 288 0.0 0.0 0.00 0.00 0.00 91 1019.8
20260903040003 11 288 0.0 0.0 0.00 0.00 0.00 91 1019.9
20260903034502 11 288 0.0 0.0 0.00 0.00 0.00 91 1020.0
20260903033100 11 288 0.0 0.0 0.00 0.00 0.00 91 1020.1
20260903031603 11 288 0.0 0.0 0.00 0.00 0.00 91 1020.2
20260903030058 11 288 0.0 0.0 0.00 0.00 0.00 91 1020.0
20260903024557 11 288 0.0 0.0 0.00 0.00 0.00 91 1020.0
20260903023054 11 288 0.0 0.0 0.00 0.00 0.00 90 1020.0
20260903021552 12 288 0.0 0.0 0.00 0.00 0.00 90 1020.1
20260903020054 12 288 0.0 0.0 0.00 0.00 0.00 90 1020.0
20260903014610 12 288 0.0 0.0 0.00 0.00 0.00 90 1020.1
20260903013100 12 288 0.0 0.0 0.00 0.00 0.00 90 1020.0
20260903011611 12 288 0.0 0.0 0.00 0.00 0.00 90 1020.0
20260903010101 12 288 0.0 0.0 0.00 0.00 0.00 90 1020.0
20260903004543 12 288 0.0 0.0 0.00 0.00 0.00 89 1020.0
20260903003049 13 288 0.0 0.0 0.00 0.00 0.00 89 1019.8
20260903001552 13 288 0.0 0.0 0.00 0.00 0.00 89 1019.8
20260903000037 13 288 0.0 0.0 0.00 0.00 0.00 88 1019.8
20260902234535 13 288 0.0 0.0 0.00 0.00 0.00 88 1019.8
20260902233033 14 288 0.0 0.0 0.00 0.00 0.00 88 1019.8
20260902231542 14 288 0.0 0.0 0.00 0.00 0.00 87 1019.8
20260902230029 15 288 0.0 0.0 0.00 0.00 0.00 86 1019.7
20260902224526 15 288 0.0 0.0 0.00 0.00 0.00 85 1019.7
20260902223035 15 288 0.0 0.0 0.00 0.00 0.00 85 1019.6
20260902221528 16 288 0.0 0.0 0.00 0.00 0.00 84 1019.6
20260902220025 16 288 0.0 0.0 0.00 0.00 0.00 84 1019.5
20260902214522 16 288 0.0 0.0 0.00 0.00 0.00 84 1019.5
20260902213019 16 288 0.0 0.0 0.00 0.00 0.00 83 1019.5
20260902211518 16 288 0.0 0.0 0.00 0.00 0.00 83 1019.4
20260902210017 16 288 0.0 0.0 0.00 0.00 0.00 82 1019.4
20260902204516 16 288 0.0 0.0 0.00 0.00 0.00 82 1019.4
20260902203015 17 288 0.0 0.0 0.00 0.00 0.00 81 1019.3
20260902201516 17 288 0.0 0.0 0.00 0.00 0.00 79 1019.2
20260902200019 17 288 0.0 0.0 0.00 0.00 0.00 78 1019.1
20260902194533 17 288 0.0 0.0 0.00 0.00 0.00 78 1019.1
20260902193100 17 288 0.0 0.0 0.00 0.00 0.00 77 1019.1
20260902191559 18 288 0.0 0.0 0.00 0.00 0.00 77 1018.9
20260902190059 18 288 0.0 0.0 0.00 0.00 0.00 75 1018.8
20260902184558 19 288 0.0 0.0 0.00 0.00 0.00 73 1018.6
20260902183058 19 288 0.0 0.0 0.00 0.00 0.00 71 1018.4
20260902181558 20 288 0.0 0.0 0.00 0.00 0.00 67 1018.3
20260902180058 21 288 0.0 0.0 0.00 0.00 0.00 63 1018.2
20260902174556 21 288 0.0 0.0 0.00 0.00 0.00 58 1018.0
20260902173056 22 288 0.0 0.0 0.00 0.00 0.00 57 1017.8
20260902171557 22 288 0.0 0.0 0.00 0.00 0.00 56 1017.8
20260902170055 22 290 0.0 12.9 0.00 0.00 0.00 54 1017.8
20260902164557 23 281 0.0 12.9 0.00 0.00 0.00 53 1017.7
20260902163053 23 284 1.6 20.9 0.00 0.00 0.00 52 1017.8
20260902161556 23 315 1.6 17.7 0.00 0.00 0.00 52 1017.9
20260902160106 23 299 8.0 17.7 0.00 0.00 0.00 51 1017.8
20260902154554 24 293 3.2 17.7 0.00 0.00 0.00 50 1017.6
20260902153050 24 258 4.8 16.1 0.00 0.00 0.00 48 1017.8
20260902151553 24 313 1.6 14.5 0.00 0.00 0.00 48 1017.7
20260902150048 25 279 4.8 20.9 0.00 0.00 0.00 48 1017.8
20260902144547 24 332 0.0 17.7 0.00 0.00 0.00 50 1017.9
20260902143047 24 316 4.8 17.7 0.00 0.00 0.00 51 1017.8
20260902141546 24 5 0.0 9.7 0.00 0.00 0.00 51 1017.9
20260902140047 24 318 1.6 17.7 0.00 0.00 0.00 52 1018.0
20260902134543 24 271 0.0 16.1 0.00 0.00 0.00 52 1018.1
20260902133047 24 287 8.0 20.9 0.00 0.00 0.00 50 1018.0
20260902131543 24 256 0.0 12.9 0.00 0.00 0.00 49 1017.8
20260902130041 24 300 9.7 17.7 0.00 0.00 0.00 47 1018.0
20260902124539 24 294 8.0 19.3 0.00 0.00 0.00 48 1018.2
20260902123038 24 289 1.6 16.1 0.00 0.00 0.00 47 1018.1
20260902121542 24 269 0.0 16.1 0.00 0.00 0.00 46 1018.3
20260902120040 25 267 0.0 9.7 0.00 0.00 0.00 47 1018.3
20260902114542 23 263 1.6 14.5 0.00 0.00 0.00 49 1018.3